This is the latest recevied weather packets stored in our database for station/object 4S6DRJ-13. If no packets are shown the sender has not sent any weather packets the latest 10 day(s).
| Time | Temp. | Humidity | Pressure | Rain* | Wind** | Luminosity | Snow |
|---|---|---|---|---|---|---|---|
| 1788378984 | 27.78° C | 85% | 1009.6 hPa | 0 mm | 0.89 m/s, 257° | 0 W/m² | - |
| 1788378924 | 27.78° C | 85% | 1009.6 hPa | 0 mm | 0.89 m/s, 223° | 0 W/m² | - |
| 1788378862 | 27.78° C | 85% | 1009.7 hPa | 0 mm | 0.89 m/s, 201° | 0 W/m² | - |
| 1788378801 | 27.78° C | 85% | 1009.8 hPa | 0 mm | 1.34 m/s, 220° | 0 W/m² | - |
| 1788378740 | 27.78° C | 85% | 1009.7 hPa | 0 mm | 0 m/s | 0 W/m² | - |
| 1788378680 | 27.78° C | 85% | 1009.6 hPa | 0 mm | 0 m/s | 0 W/m² | - |
| 1788378618 | 27.78° C | 85% | 1009.6 hPa | 0 mm | 0.89 m/s, 221° | 0 W/m² | - |
| 1788378557 | 27.78° C | 85% | 1009.6 hPa | 0 mm | 0.89 m/s, 186° | 0 W/m² | - |
| 1788378496 | 27.78° C | 85% | 1009.5 hPa | 0 mm | 1.79 m/s, 245° | 0 W/m² | - |
| 1788378435 | 27.78° C | 85% | 1009.6 hPa | 0 mm | 0.45 m/s, 218° | 0 W/m² | - |
| 1788378374 | 27.78° C | 85% | 1009.6 hPa | 0 mm | 0.89 m/s, 238° | 0 W/m² | - |
| 1788378313 | 27.78° C | 85% | 1009.7 hPa | 0 mm | 0.89 m/s, 227° | 0 W/m² | - |
| 1788378252 | 27.78° C | 85% | 1009.7 hPa | 0 mm | 0 m/s | 0 W/m² | - |
| 1788378191 | 27.78° C | 85% | 1009.9 hPa | 0 mm | 0.89 m/s, 230° | 0 W/m² | - |
| 1788378130 | 27.78° C | 85% | 1009.7 hPa | 0 mm | 0.45 m/s, 218° | 0 W/m² | - |
| 1788378069 | 27.78° C | 85% | 1009.7 hPa | 0 mm | 0.45 m/s, 242° | 0 W/m² | - |
| 1788378008 | 27.78° C | 85% | 1009.8 hPa | 0 mm | 0.89 m/s, 230° | 0 W/m² | - |
| 1788377947 | 27.78° C | 85% | 1009.8 hPa | 0 mm | 0.45 m/s, 201° | 0 W/m² | - |
| 1788377887 | 27.78° C | 85% | 1009.6 hPa | 0 mm | 0.89 m/s, 258° | 0 W/m² | - |
| 1788377825 | 27.78° C | 85% | 1009.7 hPa | 0 mm | 1.34 m/s, 232° | 0 W/m² | - |
| 1788377764 | 27.78° C | 85% | 1009.7 hPa | 0 mm | 1.34 m/s, 267° | 0 W/m² | - |
| 1788377703 | 27.78° C | 85% | 1009.8 hPa | 0 mm | 0.45 m/s, 240° | 0 W/m² | - |
| 1788377642 | 27.78° C | 85% | 1009.7 hPa | 0 mm | 0.45 m/s, 261° | 0 W/m² | - |
| 1788377580 | 27.78° C | 85% | 1009.8 hPa | 0 mm | 0.89 m/s, 245° | 0 W/m² | - |
| 1788377520 | 27.78° C | 85% | 1009.8 hPa | 0 mm | 0.89 m/s, 262° | 0 W/m² | - |
* Rain latest hour (hover to see other rain measurements)
** Current wind speed in m/s (hover to see current wind gust speed)